Regional Weather Roundup
Issued by NWS

Home | Current Version | Previous Version | Graphics & Text | Print | Product List | Glossary On
Versions: 1 2 3 4 5 6 7 8 9 10 11 12 13 14 15 16 17 18 19 20 21 22 23 24 25 26 27 28 29 30 31 32 33 34 35 36 37 38 39 40 41 42 43 44 45 46 47 48 49 50
663
ASUS43 KIND 111759
RWRIN

WEATHER ROUNDUP FOR INDIANA
NATIONAL WEATHER SERVICE INDIANAPOLIS IN
100 PM EST THU FEB 11 2016

NOTE: "FAIR" INDICATES FEW OR NO CLOUDS BELOW 12,000 FEET WITH NO
SIGNIFICANT WEATHER AND/OR OBSTRUCTIONS TO VISIBILITY.

* - STATION DOES NOT REPORT WEATHER SUCH AS PRECIPITATION OR FOG.

+ - STATION NOT QUALITY CONTROLLED BY THE NATIONAL WEATHER SERVICE.
    USE DATA WITH CAUTION...ESPECIALLY DEWPOINT AND RELATIVE
    HUMIDITY OBSERVATIONS.

INZ001>003-010>013-019-020-111900-
NORTHWEST INDIANA

CITY           SKY/WX    TMP DP  RH WIND       PRES   REMARKS
MONTICELLO +   SUNNY     20   5  50 NW6       30.30S WCI  13
6HR MIN TEMP:   7; 6HR MAX TEMP:  20;

RENSSELAER +   SUNNY     21  -4  33 W3        30.30F

$$

LMZ046-743>745-111900-
SOUTHERN LAKE MICHIGAN

STATION/POSITION TIME  TEMP    WIND        PRES    WAVE
                       AIR SEA DIR/SP/G            HT
                 (UTC) (F)     (DEG/KT/KT) (MB)    (FT)
BURNS HARBOR     1700   18     300/ 14/ 21 1026.8R
MICHIGAN CITY    1700   20     310/ 13/ 16   N/A

$$

INZ004-005-014>016-021>024-111900-
NORTH CENTRAL INDIANA

CITY           SKY/WX    TMP DP  RH WIND       PRES   REMARKS
ELKHART        LGT SNOW  19  10  68 W8        30.26S WCI   9
GOSHEN         PTSUNNY   19  11  70 W13       30.25F WCI   6
6HR MIN TEMP:  13; 6HR MAX TEMP:  20; 6HR PCP: TRACE;

SOUTH BEND     MOSUNNY   20   9  62 NW12      30.26F WCI   8
6HR MIN TEMP:  15; 6HR MAX TEMP:  20; 6HR PCP:  0.02;


$$

INZ006>009-017-018-025>027-111900-
NORTHEAST INDIANA

CITY           SKY/WX    TMP DP  RH WIND       PRES   REMARKS
ANGOLA *+      CLOUDY    18   9  68 W6        30.22F WCI   9
FORT WAYNE     FLURRIES  27   7  42 NW9       30.26F WCI  18
6HR MIN TEMP:  15; 6HR MAX TEMP:  32; 6HR PCP: TRACE;


$$

INZ028-029-035-036-043>045-051>053-111900-
WEST CENTRAL INDIANA

CITY           SKY/WX    TMP DP  RH WIND       PRES   REMARKS
GREENCASTLE +  SUNNY     21   1  42 CALM      30.31S
LAFAYETTE      SUNNY     22   6  50 VRB5      30.31F WCI  16
6HR MIN TEMP:   6; 6HR MAX TEMP:  22;

TERRE HAUTE    SUNNY     21   4  47 VRB6      30.33F WCI  13
6HR MIN TEMP:   7; 6HR MAX TEMP:  22;


$$

INZ030>032-037>040-046>048-054>057-064-065-111900-
CENTRAL INDIANA

CITY           SKY/WX    TMP DP  RH WIND       PRES   REMARKS
ANDERSON       MOSUNNY   19   9  63 N12       30.28F WCI   7
COLUMBUS       SUNNY     19   9  63 CALM      30.31F
FRANKFORT +    MOSUNNY   23   0  36 W5        30.30F WCI  17
6HR MIN TEMP:   4; 6HR MAX TEMP:  23;

GREENWOOD *+   SUNNY     23   9  54 SW3       30.29F
INDIANAPOLIS   MOSUNNY   22   8  55 SW6       30.28F WCI  14
6HR MIN TEMP:   9; 6HR MAX TEMP:  23;

-EAGLE CREEK   SUNNY     21   5  50 W6        30.28F WCI  13
6HR MIN TEMP:  12; 6HR MAX TEMP:  22;

KOKOMO *+      MOSUNNY   21   9  58 N6        30.28S WCI  14
6HR MIN TEMP:   7; 6HR MAX TEMP:  21;

MT COMFORT *+  SUNNY     21   7  53 CALM      30.28F
SHELBYVILLE    SUNNY     22   6  50 CALM      30.29F
6HR MIN TEMP:   9; 6HR MAX TEMP:  22;


$$

INZ033-034-041-042-049-050-058-059-111900-
EAST CENTRAL INDIANA

CITY           SKY/WX    TMP DP  RH WIND       PRES   REMARKS
MUNCIE         SUNNY     21  10  62 NW10      30.26F WCI  10
6HR MIN TEMP:   8; 6HR MAX TEMP:  21;


$$

INZ060-061-067>069-081>083-085>088-111900-
SOUTHWEST INDIANA

CITY           SKY/WX    TMP DP  RH WIND       PRES   REMARKS
EVANSVILLE     SUNNY     30  13  49 N8        30.32F WCI  22
6HR MIN TEMP:  24; 6HR MAX TEMP:  30;

HUNTINGBURG *+ SUNNY     27  10  50 E5        30.31F WCI  21
6HR MIN TEMP:  21; 6HR MAX TEMP:  27;


$$

INZ062-063-066-070>080-084-089>092-111900-
SOUTH CENTRAL AND SOUTHEAST INDIANA

CITY           SKY/WX    TMP DP  RH WIND       PRES   REMARKS
BLOOMINGTON    SUNNY     22   8  55 N7        30.29F WCI  13
6HR MIN TEMP:   3; 6HR MAX TEMP:  22;

MADISON *+     SUNNY     25   5  42 N5        30.30F WCI  19
SEYMOUR +      SUNNY     27  10  50 CALM      30.31F

$$





USA.gov is the U.S. government's official web portal to all federal, state and local government web resources and services.